User: anonymous   Login
Location: Unspecified
(0.0000°N, 0.0000°E)
Time: 04:44:35
(UTC+02:00)
Language:

Cosmos 1315 Rocket - Orbit

View from above orbital plane
View from above orbital plane
View from above satellite
View from above satellite

Ground track
Ground track

The orbit data is extracted from the following two-line orbital elements,

1 12904U 81103B   16236.95347693 +.00000142 +00000-0 +83174-5 0  9998
2 12904 081.1750 254.9596 0027743 324.8975 035.0418 15.05016096447897
Epoch (UTC): 23 August 2016 22:53:00
Eccentricity: 0.0027743
inclination: 81.1750°
perigee height: 532 km
apogee height: 570 km
right ascension of ascending node: 254.9596°
argument of perigee: 324.8975°
revolutions per day: 15.05016096
mean anomaly at epoch: 35.0418°
orbit number at epoch: 44789

The dashed part of the orbit path shows where the satellite is in the earth's shadow,  

DLR